Torna al catalogo

STARLINK-32015

AttivoComunicazioniVLEO
NORAD 60111·PAYLOAD·🇺🇸 United States

Lanciato Jun 23, 2024 da Cape Canaveral Space Force Station

Loading…

Prossimi Passaggi (prossime 24 ore)

TLE

AggiornatoSource: CelesTrak SupGP

Epoca: Sep 14, 2026, 21:29 UTC

1 60111C 24117W   26257.89562500  .00041405  00000+0  12233-2 0  2574
2 60111  53.1563 235.7121 0001393 100.9960 161.4448 15.34370783    16

Traccia STARLINK-32015 in tempo reale con AllMySat

Download on the App Store